Погода в Саморе

Испания     41°30′26″N   5°44′30″W
темп.,
°C
ветер,
м/с
пор.,
м/с
влажн.,
%
обл.,
%
осадки,
мм/ч
давл.,
гПа
погр.,
м
6 марта, сб
сб601:00+6св48852 0.0 1021186
04:00+4ссв48852 0.0 1021184
07:00+3ссв47891 0.0 1022173
10:00+6св577611 0.0 1023369
13:00+12св45605 0.0 1021756
16:00+14св225373 0.0 10181132
19:00+11ссв346441 0.0 101844
22:00+7св236249 0.0 102122
7 марта, вс
вс701:00+6в337874 0.0 102141
04:00+3с348933 0.0 102078
07:00+2с349316 0.0 102183
10:00+6ссв34810 0.0 1020298
13:00+11с11602 0.0 1018710
16:00+13зсз23460 0.0 10151616
19:00+10з34590 0.0 101547
22:00+8св236451 0.0 101873
8 марта, пн
пн801:00+5всв358574 0.0 1018142
04:00+6св567686 0.0 1018397
07:00+4св577683 0.0 1018350
10:00+6св566974 0.0 1019536
13:00+10св566051 0.0 1018816
16:00+12св544834 0.0 10161432
19:00+8св345417 0.0 101758
22:00+5в510730 0.0 1020243
9 марта, вт
вт901:00+2всв33740 0.0 102260
04:00+1ссв23850 0.0 102232
07:000св35930 0.0 102384
10:00+4св57738 0.0 1024507
13:00+9всв55484 0.0 10231052
16:00+11ссв334082 0.0 10201289
19:00+7ссв125541 0.0 102122
22:00+4зсз015929 0.0 102522
10 марта, ср
ср1001:00+4юз115964 0.0 102522
04:00+3з116572 0.0 102522
07:00+3зюз116486 0.0 102622
10:00+8зюз225035 0.0 1026244
13:00+13зюз234431 0.0 1025809
16:00+15зюз444132 0.0 1023939
19:00+11з346124 0.0 102434
22:00+8юз346546 0.0 102633